Location: *
(58.4167°N, 22.5000°E)
Time: 10:06:47
(UTC+00:00)

ERS-1 Rocket - Pass Details

Date: 22 September 2019
Orbit: 754 x 757 km, 98.5° (Epoch: 22 October)

Event Time Altitude Azimuth Distance (km) Brightness Sun altitude
Exits shadow 19:20:53 49° 136° (SE) 970 3.1 -21.4°
Maximum altitude 19:22:10 73° 69° (ENE) 798 2.9 -21.5°
Drops below altitude 10° 19:27:13 10° 345° (NNW) 2,299 6.2 -22.0°
Sets 19:29:31 0° 344° (NNW) 3,229 7.2 -22.2°
